Voltar ao catálogo

STARLINK-35356

AtivoComunicaçõesVLEO
NORAD 65836·PAYLOAD·🇺🇸 United States

Lançado Sep 29, 2025 de Vandenberg Space Force Base

Loading…

Próximas Passagens (próximas 24 horas)

TLE

AtualizadoSource: CelesTrak SupGP

Época: Sep 14, 2026, 21:30 UTC

1 65836C 25221P   26257.89631944  .00071421  00000+0  21124-2 0  2579
2 65836  53.1572 287.5898 0001139  87.5669  95.2273 15.34322181    14

Acompanhe STARLINK-35356 em tempo real com AllMySat

Download on the App Store